When you browse on this site, cookies collect data to enhance your experience and personalize the content and advertising you see.
Visit our Privacy Policy to learn more. By continuing to use the site, you agree to this use of cookies and data.
  • Em Portugal
  • Lista de países
  • Para 7 dias
  • Temperatura da água
  • Mapas de satélite
  • Mapa do tempo
  • Widgets de tempo
  • user-avatar
    Iniciar Sessão

    Previsão horária em Gacnik

    Hoje, 20 Julho, Sábado

    Tempo Temperatura Precipitação Vento Pressão Humidade
    00:00 +15°C° 0 mm 0 m/s 746 mmHg 89%
    01:00 +15°C° 0 mm 0 m/s 747 mmHg 89%
    02:00 +15°C° 0 mm 0 m/s 747 mmHg 89%
    03:00 +16°C° 0 mm 1 m/s 747 mmHg 89%
    04:00 +16°C° 0 mm 1 m/s 747 mmHg 88%
    05:00 +19°C° 0 mm 1 m/s 747 mmHg 81%
    06:00 +18°C° 0 mm 0 m/s 747 mmHg 73%
    07:00 +21°C° 0 mm 0 m/s 748 mmHg 63%
    08:00 +23°C° 0 mm 0 m/s 748 mmHg 56%
    09:00 +25°C° 0 mm 0 m/s 748 mmHg 49%
    10:00 +29°C° 0 mm 1 m/s 748 mmHg 41%
    11:00 +29°C° 0 mm 1 m/s 748 mmHg 40%
    12:00 +29°C° 0 mm 2 m/s 748 mmHg 39%
    13:00 +30°C° 0 mm 2 m/s 748 mmHg 38%
    14:00 +29°C° 0 mm 2 m/s 748 mmHg 40%
    15:00 +29°C° 0 mm 2 m/s 748 mmHg 43%
    16:00 +28°C° 0 mm 2 m/s 748 mmHg 46%
    17:00 +27°C° 0 mm 2 m/s 748 mmHg 52%
    18:00 +26°C° 0 mm 2 m/s 747 mmHg 59%
    19:00 +24°C° 0 mm 2 m/s 747 mmHg 65%
    20:00 +23°C° 0 mm 2 m/s 747 mmHg 69%
    21:00 +21°C° 0 mm 2 m/s 747 mmHg 73%
    22:00 +21°C° 0 mm 1 m/s 747 mmHg 76%
    23:00 +19°C° 0 mm 2 m/s 747 mmHg 76%

    Amanhã, 21 Julho, Domingo

    Tempo Temperatura Precipitação Vento Pressão Humidade
    00:00 +19°C° 0 mm 2 m/s 747 mmHg 75%
    01:00 +19°C° 0 mm 2 m/s 747 mmHg 75%
    02:00 +18°C° 0.1 mm 2 m/s 746 mmHg 77%
    03:00 +18°C° 0.1 mm 2 m/s 746 mmHg 80%
    04:00 +18°C° 0.1 mm 2 m/s 746 mmHg 82%
    05:00 +18°C° 0.5 mm 2 m/s 746 mmHg 82%
    06:00 +19°C° 0.5 mm 3 m/s 746 mmHg 82%
    07:00 +20°C° 0.5 mm 3 m/s 746 mmHg 82%
    08:00 +21°C° 0.4 mm 3 m/s 746 mmHg 79%
    09:00 +24°C° 0.4 mm 3 m/s 747 mmHg 76%
    10:00 +25°C° 0.4 mm 3 m/s 747 mmHg 74%
    11:00 +26°C° 0.2 mm 3 m/s 747 mmHg 68%
    12:00 +26°C° 0.2 mm 4 m/s 747 mmHg 62%
    13:00 +27°C° 0.2 mm 4 m/s 747 mmHg 55%
    14:00 +27°C° 0.1 mm 4 m/s 747 mmHg 55%
    15:00 +27°C° 0.1 mm 5 m/s 748 mmHg 55%
    16:00 +26°C° 0.1 mm 5 m/s 748 mmHg 55%
    17:00 +25°C° 0.2 mm 4 m/s 748 mmHg 62%
    18:00 +22°C° 0.2 mm 4 m/s 748 mmHg 69%
    19:00 +20°C° 0.2 mm 3 m/s 748 mmHg 76%
    20:00 +19°C° 0 mm 3 m/s 749 mmHg 80%
    21:00 +18°C° 0 mm 3 m/s 749 mmHg 83%
    22:00 +17°C° 0 mm 3 m/s 749 mmHg 87%
    23:00 +17°C° 0 mm 3 m/s 749 mmHg 88%

    Depois de amanhã, 22 Julho, Segunda-feira

    Tempo Temperatura Precipitação Vento Pressão Humidade
    00:00 +17°C° 0 mm 3 m/s 749 mmHg 90%
    01:00 +15°C° 0 mm 4 m/s 750 mmHg 91%
    02:00 +17°C° 0 mm 4 m/s 750 mmHg 90%
    03:00 +17°C° 0 mm 4 m/s 750 mmHg 88%
    04:00 +17°C° 0 mm 4 m/s 750 mmHg 87%
    05:00 +17°C° 0 mm 4 m/s 750 mmHg 83%
    06:00 +17°C° 0 mm 5 m/s 751 mmHg 79%
    07:00 +17°C° 0 mm 5 m/s 751 mmHg 75%
    08:00 +19°C° 0 mm 5 m/s 751 mmHg 67%
    09:00 +21°C° 0 mm 5 m/s 752 mmHg 59%
    10:00 +22°C° 0 mm 5 m/s 752 mmHg 50%
    11:00 +22°C° 0 mm 5 m/s 752 mmHg 49%
    12:00 +23°C° 0 mm 5 m/s 752 mmHg 48%
    13:00 +23°C° 0 mm 5 m/s 752 mmHg 46%
    14:00 +23°C° 0 mm 5 m/s 752 mmHg 47%
    15:00 +23°C° 0 mm 5 m/s 752 mmHg 48%
    16:00 +23°C° 0 mm 5 m/s 752 mmHg 49%
    17:00 +21°C° 0 mm 4 m/s 752 mmHg 54%
    18:00 +20°C° 0 mm 3 m/s 752 mmHg 59%
    19:00 +19°C° 0 mm 3 m/s 752 mmHg 64%
    20:00 +18°C° 0 mm 3 m/s 752 mmHg 69%
    21:00 +17°C° 0 mm 2 m/s 752 mmHg 74%
    22:00 +16°C° 0 mm 2 m/s 752 mmHg 80%
    23:00 +16°C° 0 mm 2 m/s 752 mmHg 79%

    23 Julho, Terça-feira

    Tempo Temperatura Precipitação Vento Pressão Humidade
    00:00 +17°C° 0 mm 2 m/s 752 mmHg 79%
    01:00 +17°C° 0 mm 2 m/s 752 mmHg 78%
    02:00 +17°C° 0 mm 2 m/s 752 mmHg 79%
    03:00 +17°C° 0 mm 2 m/s 752 mmHg 80%
    04:00 +17°C° 0 mm 2 m/s 752 mmHg 81%
    05:00 +17°C° 0 mm 2 m/s 751 mmHg 82%
    06:00 +17°C° 0 mm 2 m/s 751 mmHg 82%
    07:00 +17°C° 0 mm 2 m/s 751 mmHg 82%
    08:00 +18°C° 0 mm 2 m/s 751 mmHg 81%
    09:00 +19°C° 0 mm 2 m/s 752 mmHg 80%
    10:00 +20°C° 0 mm 3 m/s 752 mmHg 79%
    11:00 +21°C° 0 mm 3 m/s 752 mmHg 74%
    12:00 +22°C° 0 mm 3 m/s 751 mmHg 69%
    13:00 +25°C° 0 mm 3 m/s 751 mmHg 64%
    14:00 +25°C° 0 mm 3 m/s 751 mmHg 63%
    15:00 +25°C° 0 mm 4 m/s 751 mmHg 62%
    16:00 +26°C° 0 mm 4 m/s 751 mmHg 61%
    17:00 +25°C° 0 mm 3 m/s 751 mmHg 64%
    18:00 +24°C° 0 mm 3 m/s 751 mmHg 68%
    19:00 +22°C° 0 mm 3 m/s 750 mmHg 72%
    20:00 +20°C° 0 mm 2 m/s 750 mmHg 79%
    21:00 +19°C° 0 mm 2 m/s 751 mmHg 86%
    22:00 +18°C° 0 mm 2 m/s 751 mmHg 92%
    23:00 +18°C° 0 mm 1 m/s 751 mmHg 94%

    24 Julho, Quarta-feira

    Tempo Temperatura Precipitação Vento Pressão Humidade
    00:00 +18°C° 0 mm 1 m/s 751 mmHg 95%
    01:00 +18°C° 0 mm 1 m/s 751 mmHg 97%
    02:00 +18°C° 0 mm 1 m/s 750 mmHg 97%
    03:00 +17°C° 0 mm 2 m/s 750 mmHg 97%
    04:00 +17°C° 0 mm 2 m/s 750 mmHg 97%
    05:00 +18°C° 0 mm 2 m/s 750 mmHg 90%
    06:00 +20°C° 0 mm 2 m/s 751 mmHg 84%
    07:00 +23°C° 0 mm 2 m/s 751 mmHg 77%
    08:00 +25°C° 0 mm 2 m/s 751 mmHg 69%
    09:00 +26°C° 0 mm 2 m/s 751 mmHg 62%
    10:00 +28°C° 0 mm 2 m/s 751 mmHg 54%
    11:00 +29°C° 0 mm 2 m/s 751 mmHg 50%
    12:00 +30°C° 0 mm 2 m/s 751 mmHg 45%
    13:00 +31°C° 0 mm 3 m/s 751 mmHg 41%
    14:00 +31°C° 0 mm 3 m/s 751 mmHg 40%
    15:00 +30°C° 0 mm 3 m/s 751 mmHg 40%
    16:00 +30°C° 0 mm 3 m/s 751 mmHg 40%
    17:00 +28°C° 0 mm 3 m/s 751 mmHg 47%
    18:00 +27°C° 0 mm 2 m/s 751 mmHg 54%
    19:00 +25°C° 0 mm 2 m/s 751 mmHg 61%
    20:00 +23°C° 0 mm 1 m/s 751 mmHg 69%
    21:00 +21°C° 0 mm 1 m/s 751 mmHg 76%
    22:00 +17°C° 0 mm 0 m/s 751 mmHg 84%
    23:00 +17°C° 0 mm 0 m/s 751 mmHg 85%

    25 Julho, Quinta-feira

    Tempo Temperatura Precipitação Vento Pressão Humidade
    00:00 +17°C° 0 mm 0 m/s 751 mmHg 86%
    01:00 +16°C° 0 mm 0 m/s 751 mmHg 87%
    02:00 +16°C° 0 mm 0 m/s 751 mmHg 87%
    03:00 +16°C° 0 mm 0 m/s 751 mmHg 87%
    04:00 +15°C° 0 mm 0 m/s 751 mmHg 86%
    05:00 +18°C° 0 mm 0 m/s 752 mmHg 76%
    06:00 +20°C° 0 mm 0 m/s 752 mmHg 66%
    07:00 +22°C° 0 mm 0 m/s 752 mmHg 56%
    08:00 +25°C° 0 mm 0 m/s 752 mmHg 49%
    09:00 +27°C° 0 mm 0 m/s 752 mmHg 42%
    10:00 +31°C° 0 mm 1 m/s 753 mmHg 34%
    11:00 +32°C° 0 mm 1 m/s 753 mmHg 33%
    12:00 +32°C° 0 mm 1 m/s 752 mmHg 32%
    13:00 +33°C° 0 mm 1 m/s 752 mmHg 30%
    14:00 +34°C° 0 mm 2 m/s 752 mmHg 32%
    15:00 +32°C° 0 mm 2 m/s 752 mmHg 34%
    16:00 +33°C° 0 mm 3 m/s 752 mmHg 35%
    17:00 +30°C° 0 mm 3 m/s 752 mmHg 44%
    18:00 +28°C° 0 mm 3 m/s 751 mmHg 52%
    19:00 +26°C° 0 mm 3 m/s 751 mmHg 60%
    20:00 +24°C° 0 mm 3 m/s 751 mmHg 67%
    21:00 +21°C° 0 mm 3 m/s 752 mmHg 73%
    22:00 +19°C° 0 mm 2 m/s 752 mmHg 80%
    23:00 +19°C° 0 mm 2 m/s 752 mmHg 83%
    Mostrar mais